Flag for Laos Weather past 2 weeks in Vientiane, Laos

Now
77 °F

Light rain. Partly cloudy.


Feels Like: 78 °F
Forecast: 75 / 90 °F
Wind: 2 mph from South

Location: Vientiane Airport

Current Time: Jul 30, 2014 at 9:02:20 PM

Latest Report: Jul 30, 2014 at 8:30 PM


Visibility: 2 mi

Pressure: 29.65 "Hg

Humidity: 94%

Dew point: 75 °F

Location of VientianeLocation

Historic Weather in Vientiane — Graph

°F

Vientiane temperature yesterday

Maximum temperature yesterday: 90 °F (at 2:00 PM)
Minimum temperature yesterday: 79 °F (at 6:00 AM)
Average temperature yesterday: 85 °F

Past Weeks' High & Low Weather Summary

 TemperatureHumidityPressure
High91 °F (Jul 17, 4:00 PM)100% (Jul 19, 7:00 AM)29.80 "Hg (Jul 19, 7:00 AM)
Low75 °F (Jul 22, 8:00 PM)49% (Jul 17, 6:00 PM)29.50 "Hg (Jul 17, 5:00 PM)
Average83 °F82%29.66 "Hg
* Reported Jul 15 8:00 PM — Jul 30 8:00 PM, Vientiane, Weather by CustomWeather, © 2014

Note: Actual official high and low records may vary slightly from our data, if they occured in-between our weather recording intervals... More about our weather records

Advertising

Vientiane weather history for previous 24 hours

 ConditionsComfort  
Time TempWeatherWind HumidityBarometerVisibility
8:00 PM
Jul 30
77 °FLight rain. Partly cloudy.2 mph94%29.65 "Hg2 mi
7:30 PM77 °FFog.2 mph89%29.62 "Hg2 mi
7:00 PM77 °FRain. Partly cloudy.2 mph89%29.62 "Hg3 mi
6:30 PM79 °FDrizzle. Partly sunny.5 mph89%29.65 "Hg2 mi
6:00 PM79 °FThunderstorms. Partly sunny.5 mph89%29.62 "Hg2 mi
5:30 PM79 °FRain. Mostly cloudy.9 mph84%29.65 "Hg1 mi
5:00 PM81 °FRain. Broken clouds.18 mph79%29.62 "Hg1 mi
4:30 PM86 °FRain. Broken clouds.12 mph79%29.59 "Hg3 mi
4:00 PM88 °FPartly sunny.2 mph75%29.59 "Hg5 mi
3:30 PM86 °FPartly sunny.9 mph79%29.62 "Hg4 mi
3:00 PM86 °FRain. Partly sunny.9 mph79%29.62 "Hg4 mi
2:00 PM90 °FRain. Partly sunny.5 mph67%29.65 "Hg3 mi
1:30 PM91 °FBroken clouds.2 mph59%29.65 "HgN/A
1:00 PM90 °FBroken clouds.2 mph63%29.65 "HgN/A
12:00 PM88 °FBroken clouds.2 mph66%29.68 "HgN/A
11:30 AM88 °FBroken clouds.2 mph70%29.65 "HgN/A
11:00 AM86 °FBroken clouds.2 mph75%29.68 "HgN/A
10:30 AM86 °FBroken clouds.2 mph75%29.71 "HgN/A
10:00 AM84 °FBroken clouds.2 mph79%29.71 "HgN/A
9:30 AM86 °FBroken clouds.2 mph75%29.68 "HgN/A
9:00 AM84 °FBroken clouds.2 mph79%29.68 "HgN/A
8:30 AM82 °FScattered clouds.2 mph84%29.68 "HgN/A
8:00 AM81 °FScattered clouds.2 mph89%29.68 "HgN/A
7:30 AM81 °FScattered clouds.2 mph89%29.68 "Hg4 mi
7:00 AM79 °FScattered clouds.2 mph94%29.68 "Hg4 mi
6:30 AM79 °FFog.2 mph94%29.65 "Hg2 mi
6:00 AM79 °FFog.2 mph94%29.65 "Hg2 mi
11:30 PM
Jul 29
82 °FFog.5 mph84%29.65 "Hg2 mi
10:30 PM82 °FFog.2 mph84%29.65 "Hg2 mi
10:00 PM82 °FFog.2 mph84%29.65 "Hg2 mi
9:30 PM82 °FFog.2 mph84%29.65 "Hg2 mi
9:00 PM82 °FFog.2 mph84%29.65 "Hg2 mi
Weather by CustomWeather, © 2014

See weather overviewHow to use our weather pages